Location: *
(44.9308°N, 123.0197°W)
Time: 04:33:29
(UTC+00:00)

Cosmos 1975 Rocket - Pass Details

Date: 09 April 2020
Orbit: 603 x 634 km, 82.5° (Epoch: 24 May)

Event Time Altitude Azimuth Distance (km) Brightness Sun altitude
Rises 13:03:02 0° 188° (S) 2,859 6.2 -6.6°
Reaches altitude 10° 13:05:14 10° 189° (S) 1,964 5.4 -6.3°
Maximum altitude 13:09:35 85° 277° (W) 626 3.1 -5.5°
Drops below altitude 10° 13:14:02 10° 8° (N) 1,999 6.0 -4.8°
Sets 13:16:17 0° 9° (N) 2,915 6.9 -4.4°
